Regional Weather Roundup
Issued by NWS Memphis, TN

Current Version | Previous Version | Text Only | Print | Product List | Glossary On
Versions: 1 2 3 4 5 6 7 8 9 10 11 12 13 14 15 16 17 18 19 20 21 22 23 24 25 26 27 28 29 30 31 32 33 34 35 36 37 38 39 40 41 42 43 44 45 46 47 48 49 50
000
ASUS44 KMEG 040210
RWRMEG
MEMPHIS CWA HOURLY WEATHER ROUNDUP
NATIONAL WEATHER SERVICE MEMPHIS TN
900 PM CDT SUN MAY 03 2015

...WEST TENNESSEE...

CITY           SKY/WX    TMP DP  RH WIND       PRES   REMARKS
MEMPHIS INTL   PTCLDY    75  50  41 SE5       30.06R
NWS MEMPHIS      N/A    N/A N/A N/A MISG        N/A
JACKSON        PTCLDY    61  53  75 S3        30.08R
LEXINGTON      CLEAR     61  54  77 CALM      30.09S
DYERSBURG      CLEAR     70  43  37 SE6       30.07R
PARIS          CLEAR     61  52  72 S3        30.09R


...EASTERN ARKANSAS...

CITY           SKY/WX    TMP DP  RH WIND       PRES   REMARKS
JONESBORO      CLEAR     71  54  54 S5        30.02R
WEST MEMPHIS   CLEAR     68  55  63 SE7       30.04R
BATESVILLE     CLEAR     72  55  56 CALM      30.02R
NEWPORT        CLEAR     70  56  61 SE7       30.03R
WALNUT RIDGE   CLEAR     70  52  52 S8        30.02R
BLYTHEVILLE    CLEAR     71  50  47 SE7       30.04R
SEARCY         CLEAR     68  60  75 CALM      30.03R
STUTTGART      CLEAR     75  55  50 S7        30.04R
PINE BLUFF     CLEAR     71  58  63 S5        30.03R
MONTICELLO     CLEAR     71  58  63 S3        30.04R


...NORTH MISSISSIPPI...

CITY           SKY/WX    TMP DP  RH WIND       PRES   REMARKS
TUPELO         PTCLDY    69  54  58 CALM      30.09R
OXFORD         LGT RAIN  64  52  63 SE5       30.09S
OLIVE BRANCH   CLEAR     70  52  52 SE5       30.07R
TUNICA         PTCLDY    70  55  60 SE3       30.06R
CLARKSDALE     MOCLDY    73  55  53 CALM      30.06R
CORINTH        PTCLDY    64  55  72 CALM      30.09R
GREENWOOD      CLEAR     68  60  75 CALM      30.07R
COLUMBUS       PTCLDY    65  55  70 SE6       30.10R
STARKVILLE     FAIR      64  55  72 CALM      30.10R
GOLDEN TRIANGL CLEAR     70  50  49 S6        30.09R


...SOUTHEAST MISSOURI...

CITY           SKY/WX    TMP DP  RH WIND       PRES   REMARKS
WEST PLAINS    PTCLDY    70  53  54 S7        30.02R
POPLAR BLUFF   PTCLDY    72  52  49 S6        30.01R
CAPE GIRARDEAU PTCLDY    70  48  45 S9        30.02R


...NORTHWEST ALABAMA...

CITY           SKY/WX    TMP DP  RH WIND       PRES   REMARKS
MUSCLE SHOALS  CLEAR     62  54  74 CALM      30.13R


...MIDDLE TENNESSEE...

CITY           SKY/WX    TMP DP  RH WIND       PRES   REMARKS
NASHVILLE      PTCLDY    67  51  56 S5        30.11R
CLARKSVILLE    CLEAR     68  49  50 S3        30.09R
COLUMBIA       CLEAR     64  54  68 S3        30.11R


...WESTERN KENTUCKY...

CITY           SKY/WX    TMP DP  RH WIND       PRES   REMARKS
PADUCAH        CLEAR     68  48  48 S6        30.04R
FORT CAMPBELL  CLEAR     70  49  47 SW3       30.09R


...CENTRAL ARKANSAS...

CITY           SKY/WX    TMP DP  RH WIND       PRES   REMARKS
LITTLE ROCK    MOCLDY    73  55  53 S8        30.02R


SKY/WX REPORTED AS FAIR MEANS FEW OR NO CLOUDS BELOW
12 THOUSAND FEET.



USA.gov is the U.S. government's official web portal to all federal, state and local government web resources and services.